Time,TemperatureF,DewpointF,PressureIn,WindDirection,WindDirectionDegrees,WindSpeedMPH,WindSpeedGustMPH,Humidity,HourlyPrecipIn,Conditions,Clouds,dailyrainin,SoftwareType,DateUTC
2013-02-27 00:00:00,30.4,26.4,30.20,East,84,3.5,3.5,85,0.00,CLR,,0.00,WeatherDisplay:10.37,2013-02-27 05:00:00,
2013-02-27 00:05:00,30.3,24.0,30.18,East,84,2.3,2.3,77,0.00,CLR,,0.00,WeatherDisplay:10.37,2013-02-27 05:05:00,
2013-02-27 00:10:00,30.2,23.9,30.18,East,84,2.3,2.3,77,0.00,CLR,,0.00,WeatherDisplay:10.37,2013-02-27 05:10:00,
2013-02-27 00:15:00,30.1,23.8,30.18,East,84,3.5,3.5,77,0.00,CLR,,0.00,WeatherDisplay:10.37,2013-02-27 05:15:00,
2013-02-27 00:20:00,29.9,23.6,30.18,East,84,1.1,1.1,77,0.00,CLR,,0.00,WeatherDisplay:10.37,2013-02-27 05:20:00,
2013-02-27 00:25:00,29.9,23.6,30.18,East,84,1.1,1.1,77,0.00,CLR,,0.00,WeatherDisplay:10.37,2013-02-27 05:25:00,
2013-02-27 00:30:00,29.8,23.5,30.18,East,84,1.1,1.1,77,0.00,CLR,,0.00,WeatherDisplay:10.37,2013-02-27 05:30:00,
2013-02-27 00:35:00,29.6,23.3,30.18,East,84,1.1,1.1,77,0.00,CLR,,0.00,WeatherDisplay:10.37,2013-02-27 05:35:00,
2013-02-27 00:40:00,29.6,23.3,30.18,East,84,1.1,1.1,77,0.00,CLR,,0.00,WeatherDisplay:10.37,2013-02-27 05:40:00,
2013-02-27 00:45:00,29.6,22.3,30.18,East,84,3.5,3.5,74,0.00,BKN,,0.00,WeatherDisplay:10.37,2013-02-27 05:45:00,
2013-02-27 00:50:00,29.6,22.3,30.18,East,84,2.3,2.3,74,0.00,BKN,,0.00,WeatherDisplay:10.37,2013-02-27 05:50:00,
2013-02-27 00:55:00,29.9,22.6,30.18,East,84,2.3,2.3,74,0.00,BKN,,0.00,WeatherDisplay:10.37,2013-02-27 05:55:00,
2013-02-27 01:00:00,29.9,22.6,30.18,East,84,2.0,2.0,74,0.00,BKN,,0.00,WeatherDisplay:10.37,2013-02-27 06:00:00,
2013-02-27 01:05:00,30.0,23.7,30.17,East,84,2.3,2.3,77,0.00,SCT,,0.00,WeatherDisplay:10.37,2013-02-27 06:05:00,
2013-02-27 01:10:00,29.9,23.6,30.17,East,84,2.3,2.3,77,0.00,SCT,,0.00,WeatherDisplay:10.37,2013-02-27 06:10:00,
2013-02-27 01:15:00,29.9,23.6,30.17,East,84,2.3,2.3,77,0.00,SCT,,0.00,WeatherDisplay:10.37,2013-02-27 06:15:00,
2013-02-27 01:20:00,30.1,23.8,30.17,East,84,1.1,1.1,77,0.00,SCT,,0.00,WeatherDisplay:10.37,2013-02-27 06:20:00,
2013-02-27 01:25:00,30.3,24.0,30.17,East,84,2.3,2.3,77,0.00,SCT,,0.00,WeatherDisplay:10.37,2013-02-27 06:25:00,
2013-02-27 01:30:00,30.6,24.2,30.17,East,84,3.0,3.0,77,0.00,SCT,,0.00,WeatherDisplay:10.37,2013-02-27 06:30:00,
2013-02-27 01:35:00,30.4,24.1,30.17,East,85,3.5,4.0,77,0.00,SCT,,0.00,WeatherDisplay:10.37,2013-02-27 06:35:00,
2013-02-27 01:40:00,30.4,24.1,30.17,East,85,2.3,2.4,77,0.00,SCT,,0.00,WeatherDisplay:10.37,2013-02-27 06:40:00,
2013-02-27 01:45:00,30.7,24.3,30.17,East,85,3.5,3.5,77,0.00,SCT,,0.00,WeatherDisplay:10.37,2013-02-27 06:45:00,
2013-02-27 01:50:00,30.8,24.4,30.17,East,85,3.5,3.5,77,0.00,SCT,,0.00,WeatherDisplay:10.37,2013-02-27 06:50:00,
2013-02-27 01:55:00,30.9,24.5,30.17,East,83,4.6,4.6,77,0.00,SCT,,0.00,WeatherDisplay:10.37,2013-02-27 06:55:00,
2013-02-27 02:00:00,31.1,24.7,30.17,East,83,3.5,3.5,77,0.00,SCT,,0.00,WeatherDisplay:10.37,2013-02-27 07:00:00,
2013-02-27 02:05:00,31.0,24.0,30.14,East,83,2.3,2.3,75,0.00,OVC,,0.00,WeatherDisplay:10.37,2013-02-27 07:05:00,
2013-02-27 02:10:00,31.2,24.2,30.14,East,84,4.6,4.6,75,0.00,OVC,,0.00,WeatherDisplay:10.37,2013-02-27 07:10:00,
2013-02-27 02:15:00,31.1,24.1,30.14,East,84,2.3,2.3,75,0.00,OVC,,0.00,WeatherDisplay:10.37,2013-02-27 07:15:00,
2013-02-27 02:20:00,31.1,24.1,30.14,East,83,2.3,2.3,75,0.00,OVC,,0.00,WeatherDisplay:10.37,2013-02-27 07:20:00,
2013-02-27 02:25:00,31.3,24.3,30.14,East,81,3.5,3.5,75,0.00,OVC,,0.00,WeatherDisplay:10.37,2013-02-27 07:25:00,
2013-02-27 02:30:00,31.5,24.5,30.14,East,88,4.6,4.6,75,0.00,OVC,,0.00,WeatherDisplay:10.37,2013-02-27 07:30:00,
2013-02-27 02:35:00,31.5,24.5,30.14,ENE,71,3.5,3.5,75,0.00,OVC,,0.00,WeatherDisplay:10.37,2013-02-27 07:35:00,
2013-02-27 02:40:00,31.6,24.6,30.14,ENE,74,8.1,8.1,75,0.00,OVC,,0.00,WeatherDisplay:10.37,2013-02-27 07:40:00,
2013-02-27 02:45:00,31.7,24.7,30.14,East,83,6.9,6.9,75,0.00,OVC,,0.00,WeatherDisplay:10.37,2013-02-27 07:45:00,
2013-02-27 02:50:00,31.6,24.6,30.14,NE,34,8.1,8.1,75,0.00,OVC,,0.00,WeatherDisplay:10.37,2013-02-27 07:50:00,
2013-02-27 02:55:00,31.8,24.8,30.14,ENE,64,5.8,5.8,75,0.00,OVC,,0.00,WeatherDisplay:10.37,2013-02-27 07:55:00,
2013-02-27 03:00:00,31.8,24.8,30.14,East,86,5.8,5.8,75,0.00,OVC,,0.00,WeatherDisplay:10.37,2013-02-27 08:00:00,
2013-02-27 03:05:00,31.4,24.4,30.14,ENE,74,3.5,3.5,75,0.00,OVC,,0.00,WeatherDisplay:10.37,2013-02-27 08:05:00,
2013-02-27 03:10:00,30.8,23.8,30.14,ENE,63,2.3,2.3,75,0.00,OVC,,0.00,WeatherDisplay:10.37,2013-02-27 08:10:00,
2013-02-27 03:15:00,30.8,25.4,30.12,ENE,65,1.1,1.6,80,0.00,OVC,,0.00,WeatherDisplay:10.37,2013-02-27 08:15:00,
2013-02-27 03:20:00,30.8,25.4,30.12,ENE,60,3.5,3.5,80,0.00,OVC,,0.00,WeatherDisplay:10.37,2013-02-27 08:20:00,
2013-02-27 03:25:00,30.6,25.2,30.12,ENE,61,3.5,3.5,80,0.00,OVC,,0.00,WeatherDisplay:10.37,2013-02-27 08:25:00,
2013-02-27 03:30:00,30.5,25.1,30.12,NE,52,3.0,3.0,80,0.00,OVC,,0.00,WeatherDisplay:10.37,2013-02-27 08:30:00,
2013-02-27 03:35:00,30.6,25.2,30.12,NE,45,3.5,3.5,80,0.00,OVC,,0.00,WeatherDisplay:10.37,2013-02-27 08:35:00,
2013-02-27 03:40:00,30.6,25.2,30.12,NE,44,4.0,4.0,80,0.00,OVC,,0.00,WeatherDisplay:10.37,2013-02-27 08:40:00,
2013-02-27 03:45:00,30.5,25.1,30.12,NE,43,2.3,2.3,80,0.00,OVC,,0.00,WeatherDisplay:10.37,2013-02-27 08:45:00,
2013-02-27 03:50:00,30.6,25.2,30.12,ENE,65,3.5,3.5,80,0.00,OVC,,0.00,WeatherDisplay:10.37,2013-02-27 08:50:00,
2013-02-27 03:55:00,30.5,25.1,30.12,NE,45,3.0,3.0,80,0.00,OVC,,0.00,WeatherDisplay:10.37,2013-02-27 08:55:00,
2013-02-27 04:00:00,30.6,23.6,30.12,NE,35,1.1,1.1,75,0.00,-SN,,0.00,WeatherDisplay:10.37,2013-02-27 09:00:00,
2013-02-27 04:05:00,30.5,23.5,30.12,NNE,27,3.5,3.5,75,0.00,-SN,,0.00,WeatherDisplay:10.37,2013-02-27 09:05:00,
2013-02-27 04:10:00,30.5,23.5,30.12,NE,53,3.5,3.5,75,0.00,-SN,,0.00,WeatherDisplay:10.37,2013-02-27 09:10:00,
2013-02-27 04:15:00,30.5,23.5,30.12,NE,40,4.6,4.6,75,0.00,-SN,,0.00,WeatherDisplay:10.37,2013-02-27 09:15:00,
2013-02-27 04:20:00,30.5,23.5,30.12,NE,41,3.5,3.5,75,0.00,-SN,,0.00,WeatherDisplay:10.37,2013-02-27 09:20:00,
2013-02-27 04:25:00,30.5,23.5,30.12,NNE,33,3.5,3.5,75,0.00,-SN,,0.00,WeatherDisplay:10.37,2013-02-27 09:25:00,
2013-02-27 04:30:00,30.5,23.5,30.12,NE,34,3.5,3.5,75,0.00,-SN,,0.00,WeatherDisplay:10.37,2013-02-27 09:30:00,
2013-02-27 04:35:00,30.5,23.5,30.12,NNE,24,6.9,6.9,75,0.00,-SN,,0.00,WeatherDisplay:10.37,2013-02-27 09:35:00,
2013-02-27 04:40:00,30.4,25.0,30.11,NNE,22,7.0,7.0,80,0.00,-SN,,0.00,WeatherDisplay:10.37,2013-02-27 09:40:00,
2013-02-27 04:45:00,30.2,24.8,30.11,NE,45,6.0,6.0,80,0.00,-SN,,0.00,WeatherDisplay:10.37,2013-02-27 09:45:00,
2013-02-27 04:50:00,30.1,24.7,30.11,NNE,24,8.1,8.1,80,0.00,-SN,,0.00,WeatherDisplay:10.37,2013-02-27 09:50:00,
2013-02-27 04:55:00,29.9,24.5,30.11,NNE,27,3.5,3.5,80,0.00,-SN,,0.00,WeatherDisplay:10.37,2013-02-27 09:55:00,
2013-02-27 05:00:00,29.9,27.9,30.09,ENE,57,4.0,4.0,92,0.00,-SN,,0.00,WeatherDisplay:10.37,2013-02-27 10:00:00,
2013-02-27 05:05:00,29.8,27.8,30.09,NE,47,2.0,2.0,92,0.00,-SN,,0.00,WeatherDisplay:10.37,2013-02-27 10:05:00,
2013-02-27 05:10:00,29.6,27.6,30.09,NE,47,2.3,2.3,92,0.00,-SN,,0.00,WeatherDisplay:10.37,2013-02-27 10:10:00,
2013-02-27 05:15:00,29.4,27.4,30.09,NE,46,3.5,3.5,92,0.00,-SN,,0.00,WeatherDisplay:10.37,2013-02-27 10:15:00,
2013-02-27 05:20:00,29.4,27.4,30.08,NNE,19,3.5,3.5,92,0.00,-SN,,0.00,WeatherDisplay:10.37,2013-02-27 10:20:00,
2013-02-27 05:25:00,29.4,27.4,30.08,ENE,72,3.5,3.5,92,0.00,-SN,,0.00,WeatherDisplay:10.37,2013-02-27 10:25:00,
2013-02-27 05:30:00,29.5,27.5,30.08,ENE,74,3.5,3.5,92,0.00,-SN,,0.00,WeatherDisplay:10.37,2013-02-27 10:30:00,
2013-02-27 05:35:00,29.2,27.2,30.08,NNE,28,4.6,4.6,92,0.00,-SN,,0.00,WeatherDisplay:10.37,2013-02-27 10:35:00,
2013-02-27 05:40:00,29.1,27.1,30.08,ENE,75,3.5,3.5,92,0.00,-SN,,0.00,WeatherDisplay:10.37,2013-02-27 10:40:00,
2013-02-27 05:45:00,28.9,26.9,30.08,ENE,73,3.0,3.0,92,0.00,-SN,,0.00,WeatherDisplay:10.37,2013-02-27 10:45:00,
2013-02-27 05:50:00,28.8,26.8,30.08,NE,39,3.5,3.5,92,0.00,-SN,,0.00,WeatherDisplay:10.37,2013-02-27 10:50:00,
2013-02-27 05:55:00,28.7,26.7,30.08,NNE,26,5.8,5.8,92,0.00,-SN,,0.00,WeatherDisplay:10.37,2013-02-27 10:55:00,
2013-02-27 06:01:00,28.5,27.3,30.06,NNE,26,4.0,4.0,95,0.00,-SN,,0.00,WeatherDisplay:10.37,2013-02-27 11:01:00,
2013-02-27 06:06:00,28.5,27.3,30.06,NNE,22,4.6,4.6,95,0.00,-SN,,0.00,WeatherDisplay:10.37,2013-02-27 11:06:00,
2013-02-27 06:11:00,28.4,27.2,30.06,NNE,22,3.5,3.5,95,0.00,-SN,,0.00,WeatherDisplay:10.37,2013-02-27 11:11:00,
2013-02-27 06:16:00,28.4,27.2,30.06,NNE,20,3.5,3.5,95,0.00,-SN,,0.00,WeatherDisplay:10.37,2013-02-27 11:16:00,
2013-02-27 06:21:00,28.4,26.4,30.05,NE,54,3.5,3.5,92,0.00,-SN,,0.00,WeatherDisplay:10.37,2013-02-27 11:21:00,
2013-02-27 06:26:00,28.3,26.3,30.05,NE,36,3.5,3.5,92,0.00,-SN,,0.00,WeatherDisplay:10.37,2013-02-27 11:26:00,
2013-02-27 06:31:00,28.3,26.3,30.05,ENE,68,3.0,3.0,92,0.00,-SN,,0.00,WeatherDisplay:10.37,2013-02-27 11:31:00,
2013-02-27 06:36:00,28.4,26.4,30.05,ENE,74,3.5,3.5,92,0.00,-SN,,0.00,WeatherDisplay:10.37,2013-02-27 11:36:00,
2013-02-27 06:41:00,28.4,26.4,30.05,East,82,3.5,3.5,92,0.00,-SN,,0.00,WeatherDisplay:10.37,2013-02-27 11:41:00,
2013-02-27 06:46:00,28.3,26.3,30.05,NE,53,4.6,4.6,92,0.00,-SN,,0.00,WeatherDisplay:10.37,2013-02-27 11:46:00,
2013-02-27 06:51:00,28.3,26.3,30.05,NNE,25,3.5,3.5,92,0.00,-SN,,0.00,WeatherDisplay:10.37,2013-02-27 11:51:00,
2013-02-27 06:56:00,28.4,26.4,30.05,ENE,75,3.5,3.5,92,0.00,-SN,,0.00,WeatherDisplay:10.37,2013-02-27 11:56:00,
2013-02-27 07:01:00,28.4,26.4,30.05,NE,37,4.0,4.0,92,0.00,-SN,,0.00,WeatherDisplay:10.37,2013-02-27 12:01:00,
2013-02-27 07:06:00,28.4,26.4,30.05,NNE,30,3.5,3.5,92,0.00,-SN,,0.00,WeatherDisplay:10.37,2013-02-27 12:06:00,
2013-02-27 07:11:00,28.5,26.5,30.03,NNE,33,3.5,3.5,92,0.00,-SN,,0.00,WeatherDisplay:10.37,2013-02-27 12:11:00,
2013-02-27 07:16:00,28.5,26.5,30.03,NE,36,3.5,3.5,92,0.00,-SN,,0.00,WeatherDisplay:10.37,2013-02-27 12:16:00,
2013-02-27 07:21:00,28.6,26.6,30.03,NNE,24,6.0,6.0,92,0.00,-SN,,0.00,WeatherDisplay:10.37,2013-02-27 12:21:00,
2013-02-27 07:26:00,28.6,26.6,30.03,NNE,20,3.5,3.5,92,0.00,-SN,,0.00,WeatherDisplay:10.37,2013-02-27 12:26:00,
2013-02-27 07:31:00,28.8,26.8,30.03,NE,41,4.6,4.6,92,0.00,-SN,,0.00,WeatherDisplay:10.37,2013-02-27 12:31:00,
2013-02-27 07:36:00,28.9,26.9,30.03,ENE,71,6.0,6.0,92,0.00,-SN,,0.00,WeatherDisplay:10.37,2013-02-27 12:36:00,
2013-02-27 07:41:00,29.0,27.0,30.03,NE,44,3.5,3.5,92,0.00,-SN,,0.00,WeatherDisplay:10.37,2013-02-27 12:41:00,
2013-02-27 07:46:00,29.0,27.0,30.03,NE,45,4.0,4.0,92,0.00,-SN,,0.00,WeatherDisplay:10.37,2013-02-27 12:46:00,
2013-02-27 07:51:00,29.2,27.2,30.03,ENE,72,3.5,3.5,92,0.00,-SN,,0.00,WeatherDisplay:10.37,2013-02-27 12:51:00,
2013-02-27 07:56:00,29.3,27.3,30.03,ENE,72,3.5,3.5,92,0.00,-SN,,0.00,WeatherDisplay:10.37,2013-02-27 12:56:00,
2013-02-27 08:01:00,29.6,27.6,30.03,ENE,68,4.0,4.0,92,0.00,-SN,,0.00,WeatherDisplay:10.37,2013-02-27 13:01:00,
2013-02-27 08:07:00,29.5,27.5,30.03,ENE,71,3.5,3.5,92,0.00,-SN,,0.00,WeatherDisplay:10.37,2013-02-27 13:07:00,
2013-02-27 08:12:00,29.5,27.5,30.00,NE,35,4.6,4.6,92,0.00,-SN,,0.00,WeatherDisplay:10.37,2013-02-27 13:12:00,
2013-02-27 08:17:00,29.6,27.6,30.00,NE,36,3.5,3.5,92,0.00,-SN,,0.00,WeatherDisplay:10.37,2013-02-27 13:17:00,
2013-02-27 08:22:00,29.9,27.9,30.00,East,80,4.0,4.0,92,0.00,-SN,,0.00,WeatherDisplay:10.37,2013-02-27 13:22:00,
2013-02-27 08:27:00,29.9,27.9,30.00,NE,35,4.6,4.6,92,0.00,-SN,,0.00,WeatherDisplay:10.37,2013-02-27 13:27:00,
2013-02-27 08:32:00,30.0,28.0,30.00,NE,39,3.5,3.5,92,0.00,-SN,,0.00,WeatherDisplay:10.37,2013-02-27 13:32:00,
2013-02-27 08:37:00,30.0,28.0,30.00,NNE,29,5.8,5.8,92,0.00,-SN,,0.00,WeatherDisplay:10.37,2013-02-27 13:37:00,
2013-02-27 08:42:00,30.2,28.2,30.00,ENE,64,5.8,5.8,92,0.00,-SN,,0.00,WeatherDisplay:10.37,2013-02-27 13:42:00,
2013-02-27 08:47:00,30.4,28.4,30.00,NE,46,4.6,4.6,92,0.00,-SN,,0.00,WeatherDisplay:10.37,2013-02-27 13:47:00,
2013-02-27 08:52:00,30.4,28.4,30.00,NNE,18,6.9,6.9,92,0.00,-SN,,0.00,WeatherDisplay:10.37,2013-02-27 13:52:00,
2013-02-27 08:57:00,31.3,29.2,30.00,NE,53,8.1,8.1,92,0.00,-SN,,0.00,WeatherDisplay:10.37,2013-02-27 13:57:00,
2013-02-27 09:02:00,31.0,28.9,30.00,ENE,73,4.0,4.0,92,0.00,-SN,,0.00,WeatherDisplay:10.37,2013-02-27 14:02:00,
2013-02-27 09:07:00,31.6,29.5,30.00,ENE,61,6.9,6.9,92,0.00,-SN,,0.00,WeatherDisplay:10.37,2013-02-27 14:07:00,
2013-02-27 09:12:00,32.0,29.9,29.97,NE,51,9.2,9.2,92,0.00,OVC,,0.00,WeatherDisplay:10.37,2013-02-27 14:12:00,
2013-02-27 09:17:00,32.2,30.1,29.97,ENE,74,5.8,5.8,92,0.00,OVC,,0.00,WeatherDisplay:10.37,2013-02-27 14:17:00,
2013-02-27 09:22:00,32.1,30.0,29.97,ENE,60,9.0,9.0,92,0.00,OVC,,0.00,WeatherDisplay:10.37,2013-02-27 14:22:00,
2013-02-27 09:27:00,32.2,30.1,29.97,ENE,73,11.0,11.0,92,0.00,OVC,,0.00,WeatherDisplay:10.37,2013-02-27 14:27:00,
2013-02-27 09:32:00,32.3,30.2,29.97,ENE,66,8.0,8.0,92,0.00,OVC,,0.00,WeatherDisplay:10.37,2013-02-27 14:32:00,
2013-02-27 09:37:00,32.2,30.1,29.97,ENE,62,8.1,8.1,92,0.00,OVC,,0.00,WeatherDisplay:10.37,2013-02-27 14:37:00,
2013-02-27 09:42:00,32.5,30.4,29.97,ENE,63,11.5,11.5,92,0.00,OVC,,0.00,WeatherDisplay:10.37,2013-02-27 14:42:00,
2013-02-27 09:47:00,32.8,30.7,29.97,East,84,15.0,15.0,92,0.00,OVC,,0.00,WeatherDisplay:10.37,2013-02-27 14:47:00,
2013-02-27 09:52:00,32.7,30.6,29.97,ENE,68,11.5,11.5,92,0.00,OVC,,0.00,WeatherDisplay:10.37,2013-02-27 14:52:00,
2013-02-27 09:57:00,32.9,30.8,29.97,ENE,61,16.1,16.1,92,0.00,OVC,,0.00,WeatherDisplay:10.37,2013-02-27 14:57:00,
2013-02-27 10:02:00,32.6,30.5,29.97,ENE,66,11.5,11.5,92,0.00,OVC,,0.00,WeatherDisplay:10.37,2013-02-27 15:02:00,
2013-02-27 10:07:00,32.5,30.4,29.97,ENE,75,9.2,9.2,92,0.00,OVC,,0.00,WeatherDisplay:10.37,2013-02-27 15:07:00,
2013-02-27 10:12:00,32.6,30.5,29.93,East,88,10.4,10.4,92,0.00,-RA,,0.00,WeatherDisplay:10.37,2013-02-27 15:12:00,
2013-02-27 10:17:00,32.7,30.6,29.93,NNE,32,17.3,17.3,92,0.00,-RA,,0.00,WeatherDisplay:10.37,2013-02-27 15:17:00,
2013-02-27 10:22:00,32.7,30.6,29.93,ENE,74,13.8,13.8,92,0.00,-RA,,0.00,WeatherDisplay:10.37,2013-02-27 15:22:00,
2013-02-27 10:27:00,33.0,30.9,29.93,ENE,61,11.5,11.5,92,0.00,-RA,,0.00,WeatherDisplay:10.37,2013-02-27 15:27:00,
2013-02-27 10:32:00,33.0,30.9,29.93,East,90,11.5,11.5,92,0.00,-RA,,0.00,WeatherDisplay:10.37,2013-02-27 15:32:00,
2013-02-27 10:37:00,33.1,31.0,29.93,ENE,67,15.0,15.0,92,0.00,-RA,,0.00,WeatherDisplay:10.37,2013-02-27 15:37:00,
2013-02-27 10:42:00,33.0,30.9,29.93,ENE,64,16.1,16.1,92,0.00,-RA,,0.00,WeatherDisplay:10.37,2013-02-27 15:42:00,
2013-02-27 10:47:00,32.9,30.8,29.93,East,82,11.5,11.5,92,0.00,-RA,,0.00,WeatherDisplay:10.37,2013-02-27 15:47:00,
2013-02-27 10:52:00,33.0,30.9,29.93,ENE,58,15.0,15.0,92,0.00,-RA,,0.00,WeatherDisplay:10.37,2013-02-27 15:52:00,
2013-02-27 10:57:00,32.7,30.6,29.93,ENE,72,11.5,11.5,92,0.00,-RA,,0.00,WeatherDisplay:10.37,2013-02-27 15:57:00,
2013-02-27 11:02:00,32.8,30.7,29.93,NE,55,11.5,11.5,92,0.00,-RA,,0.00,WeatherDisplay:10.37,2013-02-27 16:02:00,
2013-02-27 11:07:00,33.1,31.0,29.93,ENE,61,13.8,13.8,92,0.00,-RA,,0.00,WeatherDisplay:10.37,2013-02-27 16:07:00,
2013-02-27 11:12:00,33.2,31.1,29.90,ENE,70,17.3,17.3,92,0.00,-RA,,0.00,WeatherDisplay:10.37,2013-02-27 16:12:00,
2013-02-27 11:17:00,33.0,30.9,29.90,ENE,60,15.0,15.0,92,0.00,-RA,,0.00,WeatherDisplay:10.37,2013-02-27 16:17:00,
2013-02-27 11:22:00,32.6,30.5,29.90,NE,44,9.2,9.2,92,0.00,-RA,,0.00,WeatherDisplay:10.37,2013-02-27 16:22:00,
2013-02-27 11:27:00,32.9,30.8,29.90,ENE,62,9.2,9.2,92,0.00,-RA,,0.00,WeatherDisplay:10.37,2013-02-27 16:27:00,
2013-02-27 11:32:00,32.5,30.4,29.90,ENE,68,13.0,13.0,92,0.00,-RA,,0.00,WeatherDisplay:10.37,2013-02-27 16:32:00,
2013-02-27 11:37:00,32.8,30.7,29.90,NE,49,10.0,10.0,92,0.00,-RA,,0.00,WeatherDisplay:10.37,2013-02-27 16:37:00,
2013-02-27 11:42:00,33.2,31.1,29.90,ENE,78,10.0,10.0,92,0.00,-RA,,0.00,WeatherDisplay:10.37,2013-02-27 16:42:00,
2013-02-27 11:47:00,33.3,31.2,29.90,East,84,12.0,12.0,92,0.00,-RA,,0.00,WeatherDisplay:10.37,2013-02-27 16:47:00,
2013-02-27 11:52:00,33.2,31.1,29.90,ENE,75,11.5,11.5,92,0.00,-RA,,0.00,WeatherDisplay:10.37,2013-02-27 16:52:00,
2013-02-27 11:57:00,33.3,31.2,29.90,ENE,78,12.0,12.0,92,0.00,-RA,,0.00,WeatherDisplay:10.37,2013-02-27 16:57:00,
2013-02-27 12:02:00,32.9,30.8,29.90,NE,56,9.2,9.2,92,0.00,-RA,,0.00,WeatherDisplay:10.37,2013-02-27 17:02:00,
2013-02-27 12:07:00,33.0,30.9,29.90,ENE,60,7.0,7.0,92,0.00,-RA,,0.00,WeatherDisplay:10.37,2013-02-27 17:07:00,
2013-02-27 12:12:00,33.0,30.9,29.87,NE,43,9.2,9.2,92,0.00,-RA,,0.00,WeatherDisplay:10.37,2013-02-27 17:12:00,
2013-02-27 12:17:00,33.2,31.1,29.87,East,91,11.5,11.5,92,0.00,-RA,,0.00,WeatherDisplay:10.37,2013-02-27 17:17:00,
2013-02-27 12:22:00,33.0,30.9,29.87,NE,54,11.5,11.5,92,0.00,-RA,,0.00,WeatherDisplay:10.37,2013-02-27 17:22:00,
2013-02-27 12:27:00,32.9,30.8,29.87,ENE,67,9.2,9.2,92,0.00,-RA,,0.00,WeatherDisplay:10.37,2013-02-27 17:27:00,
2013-02-27 12:32:00,33.1,31.3,29.86,ENE,66,12.7,12.7,93,0.00,-RA,,0.00,WeatherDisplay:10.37,2013-02-27 17:32:00,
2013-02-27 12:37:00,33.1,31.3,29.86,ENE,72,8.1,8.1,93,0.00,-RA,,0.00,WeatherDisplay:10.37,2013-02-27 17:37:00,
2013-02-27 12:42:00,33.3,31.5,29.86,ENE,70,10.4,10.4,93,0.00,-RA,,0.00,WeatherDisplay:10.37,2013-02-27 17:42:00,
2013-02-27 12:47:00,33.2,31.4,29.86,NE,44,9.2,9.2,93,0.00,-RA,,0.00,WeatherDisplay:10.37,2013-02-27 17:47:00,
2013-02-27 12:52:00,33.2,31.4,29.86,ENE,63,12.7,12.7,93,0.00,-RA,,0.00,WeatherDisplay:10.37,2013-02-27 17:52:00,
2013-02-27 12:57:00,33.1,31.3,29.86,ENE,73,13.8,13.8,93,0.00,-RA,,0.00,WeatherDisplay:10.37,2013-02-27 17:57:00,
2013-02-27 13:02:00,33.3,31.5,29.86,ENE,61,11.5,11.5,93,0.00,-RA,,0.00,WeatherDisplay:10.37,2013-02-27 18:02:00,
2013-02-27 13:07:00,33.4,31.6,29.86,ENE,68,11.5,11.5,93,0.00,-RA,,0.00,WeatherDisplay:10.37,2013-02-27 18:07:00,
2013-02-27 13:12:00,33.5,30.3,29.83,ENE,58,12.7,12.7,88,0.00,-RA,,0.00,WeatherDisplay:10.37,2013-02-27 18:12:00,
2013-02-27 13:17:00,33.5,30.3,29.83,ENE,66,11.5,11.5,88,0.00,-RA,,0.00,WeatherDisplay:10.37,2013-02-27 18:17:00,
2013-02-27 13:22:00,33.3,30.1,29.83,East,81,11.5,11.5,88,0.00,-RA,,0.00,WeatherDisplay:10.37,2013-02-27 18:22:00,
2013-02-27 13:27:00,33.3,30.1,29.83,ENE,67,18.4,18.4,88,0.00,-RA,,0.00,WeatherDisplay:10.37,2013-02-27 18:27:00,
2013-02-27 13:32:00,33.2,30.0,29.83,East,94,12.0,12.0,88,0.00,-RA,,0.00,WeatherDisplay:10.37,2013-02-27 18:32:00,
2013-02-27 13:37:00,33.0,29.8,29.83,ENE,61,10.4,10.4,88,0.00,-RA,,0.00,WeatherDisplay:10.37,2013-02-27 18:37:00,
2013-02-27 13:42:00,33.0,29.8,29.83,ENE,75,12.0,12.0,88,0.00,-RA,,0.00,WeatherDisplay:10.37,2013-02-27 18:42:00,
2013-02-27 13:47:00,33.0,29.8,29.83,ENE,73,12.7,12.7,88,0.00,-RA,,0.00,WeatherDisplay:10.37,2013-02-27 18:47:00,
2013-02-27 13:52:00,32.8,31.0,29.81,ENE,67,11.5,11.5,93,0.00,-RA,,0.00,WeatherDisplay:10.37,2013-02-27 18:52:00,
2013-02-27 13:57:00,32.9,31.1,29.81,ENE,66,14.0,14.0,93,0.00,-RA,,0.00,WeatherDisplay:10.37,2013-02-27 18:57:00,
2013-02-27 14:02:00,32.7,30.9,29.81,ENE,68,11.5,11.5,93,0.00,-RA,,0.00,WeatherDisplay:10.37,2013-02-27 19:02:00,
2013-02-27 14:07:00,32.8,31.0,29.81,ENE,68,13.8,13.8,93,0.00,-RA,,0.00,WeatherDisplay:10.37,2013-02-27 19:07:00,
2013-02-27 14:12:00,32.6,28.9,29.81,ENE,76,13.8,13.8,86,0.00,OVC,,0.00,WeatherDisplay:10.37,2013-02-27 19:12:00,
2013-02-27 14:18:00,32.4,28.7,29.81,ENE,72,9.2,9.2,86,0.00,OVC,,0.00,WeatherDisplay:10.37,2013-02-27 19:18:00,
2013-02-27 14:23:00,32.3,28.6,29.81,ENE,68,10.4,10.4,86,0.00,OVC,,0.00,WeatherDisplay:10.37,2013-02-27 19:23:00,
2013-02-27 14:28:00,32.0,28.3,29.81,ENE,61,10.4,10.4,86,0.00,OVC,,0.00,WeatherDisplay:10.37,2013-02-27 19:28:00,
2013-02-27 14:33:00,31.8,30.0,29.81,ENE,72,12.0,12.0,93,0.00,-SN,,0.00,WeatherDisplay:10.37,2013-02-27 19:33:00,
2013-02-27 14:38:00,31.9,30.1,29.81,ENE,72,10.4,10.4,93,0.00,-SN,,0.00,WeatherDisplay:10.37,2013-02-27 19:38:00,
2013-02-27 14:43:00,31.8,30.0,29.81,ENE,64,13.0,13.0,93,0.00,-SN,,0.00,WeatherDisplay:10.37,2013-02-27 19:43:00,
2013-02-27 14:48:00,31.9,30.1,29.81,ENE,74,11.5,11.5,93,0.00,-SN,,0.00,WeatherDisplay:10.37,2013-02-27 19:48:00,
2013-02-27 14:53:00,32.0,30.2,29.81,ENE,74,13.8,13.8,93,0.00,-SN,,0.00,WeatherDisplay:10.37,2013-02-27 19:53:00,
2013-02-27 14:58:00,31.8,30.0,29.81,ENE,73,10.4,10.4,93,0.00,-SN,,0.00,WeatherDisplay:10.37,2013-02-27 19:58:00,
2013-02-27 15:03:00,31.7,29.9,29.81,East,80,10.4,10.4,93,0.00,-SN,,0.00,WeatherDisplay:10.37,2013-02-27 20:03:00,
2013-02-27 15:08:00,31.5,29.7,29.81,ENE,73,10.4,10.4,93,0.00,-SN,,0.00,WeatherDisplay:10.37,2013-02-27 20:08:00,
2013-02-27 15:13:00,31.4,29.6,29.81,East,79,10.4,10.4,93,0.00,-SN,,0.00,WeatherDisplay:10.37,2013-02-27 20:13:00,
2013-02-27 15:18:00,31.5,29.7,29.81,ENE,61,7.0,7.0,93,0.00,-SN,,0.00,WeatherDisplay:10.37,2013-02-27 20:18:00,
2013-02-27 15:23:00,31.5,29.7,29.81,East,82,9.2,9.2,93,0.00,-SN,,0.00,WeatherDisplay:10.37,2013-02-27 20:23:00,
2013-02-27 15:28:00,31.4,29.6,29.81,ENE,76,10.4,10.4,93,0.00,-SN,,0.00,WeatherDisplay:10.37,2013-02-27 20:28:00,
2013-02-27 15:33:00,31.1,29.3,29.81,East,82,7.0,7.0,93,0.00,-SN,,0.00,WeatherDisplay:10.37,2013-02-27 20:33:00,
2013-02-27 15:38:00,31.0,29.2,29.81,ENE,57,6.0,6.0,93,0.00,-SN,,0.00,WeatherDisplay:10.37,2013-02-27 20:38:00,
2013-02-27 15:43:00,31.2,29.4,29.80,ENE,75,11.5,11.5,93,0.00,-SN,,0.00,WeatherDisplay:10.37,2013-02-27 20:43:00,
2013-02-27 15:48:00,31.1,29.3,29.80,East,79,14.0,14.0,93,0.00,-SN,,0.00,WeatherDisplay:10.37,2013-02-27 20:48:00,
2013-02-27 15:53:00,31.0,29.2,29.80,NE,39,10.4,10.4,93,0.00,-SN,,0.00,WeatherDisplay:10.37,2013-02-27 20:53:00,
2013-02-27 15:58:00,30.8,29.0,29.80,ENE,77,7.0,7.0,93,0.00,-SN,,0.00,WeatherDisplay:10.37,2013-02-27 20:58:00,
2013-02-27 16:03:00,30.9,29.1,29.80,East,82,10.4,10.4,93,0.00,-SN,,0.00,WeatherDisplay:10.37,2013-02-27 21:03:00,
2013-02-27 16:08:00,30.8,29.0,29.80,ENE,73,10.4,10.4,93,0.00,-SN,,0.00,WeatherDisplay:10.37,2013-02-27 21:08:00,
2013-02-27 16:13:00,30.8,27.7,29.80,ENE,66,11.5,11.5,88,0.00,-SN,,0.00,WeatherDisplay:10.37,2013-02-27 21:13:00,
2013-02-27 16:18:00,30.8,27.7,29.80,NE,39,9.2,9.2,88,0.00,-SN,,0.00,WeatherDisplay:10.37,2013-02-27 21:18:00,
2013-02-27 16:23:00,30.8,27.1,29.79,NNE,33,9.2,9.2,86,0.00,-SN,,0.00,WeatherDisplay:10.37,2013-02-27 21:23:00,
2013-02-27 16:28:00,30.7,27.0,29.79,ENE,69,11.5,11.5,86,0.00,-SN,,0.00,WeatherDisplay:10.37,2013-02-27 21:28:00,
2013-02-27 16:33:00,30.7,27.0,29.77,East,81,11.5,11.5,86,0.00,-SN,,0.00,WeatherDisplay:10.37,2013-02-27 21:33:00,
2013-02-27 16:38:00,30.6,26.9,29.77,ENE,63,17.3,17.3,86,0.00,-SN,,0.00,WeatherDisplay:10.37,2013-02-27 21:38:00,
2013-02-27 16:43:00,30.5,26.8,29.77,East,86,11.5,11.5,86,0.00,-SN,,0.00,WeatherDisplay:10.37,2013-02-27 21:43:00,
2013-02-27 16:48:00,30.6,26.9,29.77,ENE,60,15.0,15.0,86,0.00,-SN,,0.00,WeatherDisplay:10.37,2013-02-27 21:48:00,
2013-02-27 16:53:00,30.4,26.7,29.77,ENE,67,12.7,12.7,86,0.00,-SN,,0.00,WeatherDisplay:10.37,2013-02-27 21:53:00,
2013-02-27 16:58:00,30.4,26.7,29.77,East,80,9.2,9.2,86,0.00,-SN,,0.00,WeatherDisplay:10.37,2013-02-27 21:58:00,
2013-02-27 17:03:00,30.3,26.6,29.77,ENE,73,10.4,10.4,86,0.00,-SN,,0.00,WeatherDisplay:10.37,2013-02-27 22:03:00,
2013-02-27 17:08:00,30.4,26.7,29.77,ENE,69,11.5,11.5,86,0.00,-SN,,0.00,WeatherDisplay:10.37,2013-02-27 22:08:00,
2013-02-27 17:13:00,30.3,28.0,29.76,ENE,67,12.0,12.0,91,0.00,-SN,,0.00,WeatherDisplay:10.37,2013-02-27 22:13:00,
2013-02-27 17:18:00,30.0,27.7,29.76,ENE,70,15.0,15.0,91,0.00,-SN,,0.00,WeatherDisplay:10.37,2013-02-27 22:18:00,
2013-02-27 17:23:00,30.0,27.7,29.76,East,84,6.9,6.9,91,0.00,-SN,,0.00,WeatherDisplay:10.37,2013-02-27 22:23:00,
2013-02-27 17:28:00,29.9,27.6,29.76,East,80,8.1,8.1,91,0.00,-SN,,0.00,WeatherDisplay:10.37,2013-02-27 22:28:00,
2013-02-27 17:33:00,29.9,26.2,29.75,ENE,63,11.5,11.5,86,0.00,-SN,,0.00,WeatherDisplay:10.37,2013-02-27 22:33:00,
2013-02-27 17:38:00,29.9,26.2,29.75,ENE,73,15.0,15.0,86,0.00,-SN,,0.00,WeatherDisplay:10.37,2013-02-27 22:38:00,
2013-02-27 17:43:00,29.8,26.1,29.75,ENE,58,8.1,8.1,86,0.00,OVC,,0.00,WeatherDisplay:10.37,2013-02-27 22:43:00,
2013-02-27 17:48:00,29.6,25.9,29.75,NE,52,8.0,8.0,86,0.00,OVC,,0.00,WeatherDisplay:10.37,2013-02-27 22:48:00,
2013-02-27 17:53:00,29.4,25.7,29.75,NNE,22,6.9,6.9,86,0.00,-SN,,0.00,WeatherDisplay:10.37,2013-02-27 22:53:00,
2013-02-27 17:58:00,29.5,25.8,29.75,ENE,67,9.2,9.2,86,0.00,-SN,,0.00,WeatherDisplay:10.37,2013-02-27 22:58:00,
2013-02-27 18:03:00,29.3,25.6,29.75,NNE,28,6.9,6.9,86,0.00,-SN,,0.00,WeatherDisplay:10.37,2013-02-27 23:03:00,
2013-02-27 18:08:00,29.2,25.5,29.75,NE,48,10.4,10.4,86,0.00,-SN,,0.00,WeatherDisplay:10.37,2013-02-27 23:08:00,
2013-02-27 18:13:00,29.1,25.4,29.76,ENE,72,12.0,12.0,86,0.00,-SN,,0.00,WeatherDisplay:10.37,2013-02-27 23:13:00,
2013-02-27 18:18:00,29.1,25.4,29.76,ENE,73,9.2,9.2,86,0.00,-SN,,0.00,WeatherDisplay:10.37,2013-02-27 23:18:00,
2013-02-27 18:23:00,29.1,25.4,29.76,ENE,62,11.5,11.5,86,0.00,-SN,,0.00,WeatherDisplay:10.37,2013-02-27 23:23:00,
2013-02-27 18:28:00,29.0,25.3,29.76,ENE,60,6.0,6.0,86,0.00,-SN,,0.00,WeatherDisplay:10.37,2013-02-27 23:28:00,
2013-02-27 18:33:00,28.9,25.2,29.74,NE,48,8.1,8.1,86,0.00,-SN,,0.00,WeatherDisplay:10.37,2013-02-27 23:33:00,
2013-02-27 18:38:00,28.9,25.2,29.74,NE,52,10.4,10.4,86,0.00,-SN,,0.00,WeatherDisplay:10.37,2013-02-27 23:38:00,
2013-02-27 18:43:00,28.9,25.2,29.74,ENE,77,11.5,11.5,86,0.00,-SN,,0.00,WeatherDisplay:10.37,2013-02-27 23:43:00,
2013-02-27 18:48:00,28.9,25.2,29.74,ENE,75,8.1,8.1,86,0.00,-SN,,0.00,WeatherDisplay:10.37,2013-02-27 23:48:00,
2013-02-27 18:53:00,28.9,25.2,29.74,ENE,64,10.4,10.4,86,0.00,-SN,,0.00,WeatherDisplay:10.37,2013-02-27 23:53:00,
2013-02-27 18:58:00,28.8,25.1,29.74,ENE,58,9.2,9.2,86,0.00,-SN,,0.00,WeatherDisplay:10.37,2013-02-27 23:58:00,
2013-02-27 19:03:00,29.0,25.3,29.74,ENE,59,10.4,10.4,86,0.00,-SN,,0.00,WeatherDisplay:10.37,2013-02-28 00:03:00,
2013-02-27 19:08:00,28.9,25.2,29.74,ENE,65,8.1,8.1,86,0.00,-SN,,0.00,WeatherDisplay:10.37,2013-02-28 00:08:00,
2013-02-27 19:13:00,28.9,25.8,29.74,ENE,73,9.2,9.2,88,0.00,-SN,,0.00,WeatherDisplay:10.37,2013-02-28 00:13:00,
2013-02-27 19:18:00,28.9,25.8,29.74,NE,35,5.8,5.8,88,0.00,-SN,,0.00,WeatherDisplay:10.37,2013-02-28 00:18:00,
2013-02-27 19:23:00,29.0,25.9,29.74,NE,49,5.8,5.8,88,0.00,-SN,,0.00,WeatherDisplay:10.37,2013-02-28 00:23:00,
2013-02-27 19:28:00,28.9,25.8,29.74,NE,39,5.8,5.8,88,0.00,-SN,,0.00,WeatherDisplay:10.37,2013-02-28 00:28:00,
2013-02-27 19:33:00,28.8,25.7,29.74,ENE,65,9.2,9.2,88,0.00,-SN,,0.00,WeatherDisplay:10.37,2013-02-28 00:33:00,
2013-02-27 19:38:00,28.8,25.7,29.74,ENE,68,10.4,10.4,88,0.00,-SN,,0.00,WeatherDisplay:10.37,2013-02-28 00:38:00,
2013-02-27 19:43:00,28.8,25.7,29.74,NNE,24,8.1,8.1,88,0.00,-SN,,0.00,WeatherDisplay:10.37,2013-02-28 00:43:00,
2013-02-27 19:48:00,28.8,25.7,29.74,ENE,64,7.0,7.0,88,0.00,-SN,,0.00,WeatherDisplay:10.37,2013-02-28 00:48:00,
2013-02-27 19:53:00,28.8,25.7,29.74,NE,52,8.1,8.1,88,0.00,-SN,,0.00,WeatherDisplay:10.37,2013-02-28 00:53:00,
2013-02-27 19:58:00,28.9,25.8,29.74,ENE,65,11.5,11.5,88,0.00,-SN,,0.00,WeatherDisplay:10.37,2013-02-28 00:58:00,
2013-02-27 20:03:00,28.7,25.6,29.70,ENE,64,13.8,13.8,88,0.00,-SN,,0.00,WeatherDisplay:10.37,2013-02-28 01:03:00,
2013-02-27 20:08:00,28.7,25.6,29.70,NNE,30,8.1,8.1,88,0.00,-SN,,0.00,WeatherDisplay:10.37,2013-02-28 01:08:00,
2013-02-27 20:13:00,28.6,25.5,29.70,ENE,68,13.8,13.8,88,0.00,-SN,,0.00,WeatherDisplay:10.37,2013-02-28 01:13:00,
2013-02-27 20:18:00,28.5,25.4,29.70,ENE,66,12.7,12.7,88,0.00,-SN,,0.00,WeatherDisplay:10.37,2013-02-28 01:18:00,
2013-02-27 20:23:00,28.7,25.0,29.69,NE,40,10.4,10.4,86,0.00,-SN,,0.00,WeatherDisplay:10.37,2013-02-28 01:23:00,
2013-02-27 20:28:00,28.6,24.9,29.69,ENE,73,8.1,8.1,86,0.00,-SN,,0.00,WeatherDisplay:10.37,2013-02-28 01:28:00,
2013-02-27 20:33:00,28.6,24.9,29.69,NNE,29,6.9,6.9,86,0.00,-SN,,0.00,WeatherDisplay:10.37,2013-02-28 01:33:00,
2013-02-27 20:38:00,28.6,24.9,29.69,NNE,21,11.5,11.5,86,0.00,-SN,,0.00,WeatherDisplay:10.37,2013-02-28 01:38:00,
2013-02-27 20:43:00,28.7,25.0,29.69,NE,54,11.5,11.5,86,0.00,-SN,,0.00,WeatherDisplay:10.37,2013-02-28 01:43:00,
2013-02-27 20:48:00,28.5,24.8,29.69,NE,44,5.0,5.0,86,0.00,-SN,,0.00,WeatherDisplay:10.37,2013-02-28 01:48:00,
2013-02-27 20:53:00,28.6,24.9,29.69,NE,52,6.9,6.9,86,0.00,OVC,,0.00,WeatherDisplay:10.37,2013-02-28 01:53:00,
2013-02-27 20:58:00,28.5,24.8,29.69,NNE,21,7.0,7.0,86,0.00,OVC,,0.00,WeatherDisplay:10.37,2013-02-28 01:58:00,
2013-02-27 21:03:00,28.6,24.9,29.69,ENE,77,5.8,5.8,86,0.00,OVC,,0.00,WeatherDisplay:10.37,2013-02-28 02:03:00,
2013-02-27 21:08:00,28.5,24.8,29.69,NE,49,4.6,4.6,86,0.00,OVC,,0.00,WeatherDisplay:10.37,2013-02-28 02:08:00,
2013-02-27 21:13:00,28.7,25.6,29.69,NNE,14,6.9,6.9,88,0.00,OVC,,0.00,WeatherDisplay:10.37,2013-02-28 02:13:00,
2013-02-27 21:18:00,28.7,25.6,29.69,ENE,71,5.8,5.8,88,0.00,OVC,,0.00,WeatherDisplay:10.37,2013-02-28 02:18:00,
2013-02-27 21:23:00,28.5,25.4,29.69,NE,47,5.8,5.8,88,0.00,OVC,,0.00,WeatherDisplay:10.37,2013-02-28 02:23:00,
2013-02-27 21:28:00,28.4,25.3,29.69,ENE,69,4.6,4.6,88,0.00,OVC,,0.00,WeatherDisplay:10.37,2013-02-28 02:28:00,
2013-02-27 21:33:00,28.6,26.6,29.68,ENE,74,5.0,5.0,92,0.00,-SN,,0.00,WeatherDisplay:10.37,2013-02-28 02:33:00,
2013-02-27 21:38:00,28.5,26.5,29.68,ENE,66,8.1,8.1,92,0.00,-SN,,0.00,WeatherDisplay:10.37,2013-02-28 02:38:00,
2013-02-27 21:43:00,28.6,26.6,29.68,ENE,73,6.9,6.9,92,0.00,-SN,,0.00,WeatherDisplay:10.37,2013-02-28 02:43:00,
2013-02-27 21:48:00,28.5,26.5,29.68,NNE,28,10.4,10.4,92,0.00,-SN,,0.00,WeatherDisplay:10.37,2013-02-28 02:48:00,
2013-02-27 21:53:00,28.4,26.4,29.67,NNE,21,8.0,8.0,92,0.00,-SN,,0.00,WeatherDisplay:10.37,2013-02-28 02:53:00,
2013-02-27 21:58:00,28.3,26.3,29.67,NE,48,3.5,3.5,92,0.00,-SN,,0.00,WeatherDisplay:10.37,2013-02-28 02:58:00,
2013-02-27 22:03:00,28.2,26.2,29.67,NE,44,6.9,6.9,92,0.00,-SN,,0.00,WeatherDisplay:10.37,2013-02-28 03:03:00,
2013-02-27 22:08:00,28.3,26.3,29.67,ENE,66,3.5,3.5,92,0.00,-SN,,0.00,WeatherDisplay:10.37,2013-02-28 03:08:00,
2013-02-27 22:13:00,28.2,26.2,29.67,NNE,17,4.6,4.6,92,0.00,-SN,,0.00,WeatherDisplay:10.37,2013-02-28 03:13:00,
2013-02-27 22:18:00,28.3,26.3,29.67,ENE,77,2.3,2.3,92,0.00,-SN,,0.00,WeatherDisplay:10.37,2013-02-28 03:18:00,
2013-02-27 22:23:00,28.2,26.2,29.66,North,355,2.3,2.3,92,0.00,-SN,,0.00,WeatherDisplay:10.37,2013-02-28 03:23:00,
2013-02-27 22:28:00,28.2,26.2,29.66,North,6,3.5,3.5,92,0.00,-SN,,0.00,WeatherDisplay:10.37,2013-02-28 03:28:00,
2013-02-27 22:33:00,28.3,26.3,29.66,NNE,17,6.9,6.9,92,0.00,-SN,,0.00,WeatherDisplay:10.37,2013-02-28 03:33:00,
2013-02-27 22:38:00,28.3,26.3,29.66,NNE,18,4.0,4.0,92,0.00,-SN,,0.00,WeatherDisplay:10.37,2013-02-28 03:38:00,
2013-02-27 22:43:00,28.2,26.2,29.66,NE,39,4.6,4.6,92,0.00,-SN,,0.00,WeatherDisplay:10.37,2013-02-28 03:43:00,
2013-02-27 22:48:00,28.2,26.2,29.66,NNE,16,8.1,8.1,92,0.00,-SN,,0.00,WeatherDisplay:10.37,2013-02-28 03:48:00,
2013-02-27 22:53:00,28.2,26.2,29.66,NNE,19,5.8,5.8,92,0.00,-SN,,0.00,WeatherDisplay:10.37,2013-02-28 03:53:00,
2013-02-27 22:58:00,28.2,26.2,29.66,NNE,22,9.2,9.2,92,0.00,-SN,,0.00,WeatherDisplay:10.37,2013-02-28 03:58:00,
2013-02-27 23:03:00,28.2,26.2,29.64,North,3,9.2,9.2,92,0.00,OVC,,0.00,WeatherDisplay:10.37,2013-02-28 04:03:00,
2013-02-27 23:08:00,28.2,26.2,29.64,NNE,30,6.9,6.9,92,0.00,OVC,,0.00,WeatherDisplay:10.37,2013-02-28 04:08:00,
2013-02-27 23:13:00,28.3,26.3,29.64,NE,34,4.6,4.6,92,0.00,OVC,,0.00,WeatherDisplay:10.37,2013-02-28 04:13:00,
2013-02-27 23:18:00,28.2,26.2,29.64,NNE,18,7.0,7.0,92,0.00,OVC,,0.00,WeatherDisplay:10.37,2013-02-28 04:18:00,
2013-02-27 23:23:00,28.1,26.1,29.64,NE,48,6.0,6.0,92,0.00,OVC,,0.00,WeatherDisplay:10.37,2013-02-28 04:23:00,
2013-02-27 23:28:00,28.2,26.2,29.64,NNE,29,9.2,9.2,92,0.00,OVC,,0.00,WeatherDisplay:10.37,2013-02-28 04:28:00,
2013-02-27 23:33:00,28.2,26.2,29.64,NNE,32,6.9,6.9,92,0.00,OVC,,0.00,WeatherDisplay:10.37,2013-02-28 04:33:00,
2013-02-27 23:38:00,28.2,26.2,29.64,NNE,26,4.0,4.0,92,0.00,OVC,,0.00,WeatherDisplay:10.37,2013-02-28 04:38:00,
2013-02-27 23:43:00,28.3,26.3,29.64,NNE,15,3.5,3.5,92,0.00,OVC,,0.00,WeatherDisplay:10.37,2013-02-28 04:43:00,
2013-02-27 23:48:00,28.1,26.1,29.64,NNE,13,2.3,2.3,92,0.00,OVC,,0.00,WeatherDisplay:10.37,2013-02-28 04:48:00,
2013-02-27 23:53:00,28.1,26.1,29.64,NNE,15,5.8,5.8,92,0.00,OVC,,0.00,WeatherDisplay:10.37,2013-02-28 04:53:00,
2013-02-27 23:58:00,28.1,26.1,29.64,NNE,12,6.9,6.9,92,0.00,OVC,,0.00,WeatherDisplay:10.37,2013-02-28 04:58:00,